Date String (YYYY-MM-DD hh:mm:ss) UTC,Instrument flags,Ambient pressure (hPa),Sample flow (lpm),Bypass flow (lpm),Sample temperature (°C),Ambient temperature (°C),ASC tube jacket temperature (°C),LED temperature (°C),Box temperature (°C),Sample RH (%),Span deviation,Mass concentration (μg/m³),Mass concentration (μg/m³),Mass concentration (μg/m³)
DateTimeUTC,F1_M11,P_M11,Q1_M11,Q2_M11,T1_M11,T2_M11,T3_M11,T4_M11,T5_M11,U1_M11,ZSPAN_M11,X0_M11,X2_M11,X1_M11
2022-01-22 06:00:00,,0833.6,4.99,0.00,22.6,22.4,00.0,31.5,24.5,14.6,0000.0,0006.55,0004.23,0004.13
2022-01-22 06:01:00,,0833.6,5.00,0.00,22.6,22.3,00.0,31.5,24.5,14.6,0000.0,0006.35,0004.24,0004.13
2022-01-22 06:02:00,,0833.6,5.00,0.00,22.6,22.2,00.0,31.5,24.5,14.6,0000.0,0005.33,0004.26,0004.15
2022-01-22 06:03:00,,0833.6,5.01,0.00,22.6,22.2,00.0,31.5,24.5,14.6,0000.0,0005.43,0004.28,0004.15
2022-01-22 06:04:00,,0833.6,4.99,0.00,22.6,22.1,00.0,31.5,24.4,14.5,0000.0,0005.50,0004.30,0004.16
2022-01-22 06:05:00,,0833.6,5.02,0.00,22.6,22.1,00.0,31.5,24.4,14.6,0000.0,0005.48,0004.31,0004.16
2022-01-22 06:06:00,,0833.6,5.00,0.00,22.6,22.1,00.0,31.5,24.4,14.7,0000.0,0005.59,0004.35,0004.19
2022-01-22 06:07:00,,0833.6,4.99,0.00,22.6,22.0,00.0,31.5,24.4,14.8,0000.0,0005.66,0004.38,0004.21
2022-01-22 06:08:00,,0833.6,5.01,0.00,22.6,22.0,00.0,31.5,24.4,14.9,0000.0,0005.73,0004.42,0004.26
2022-01-22 06:09:00,,0833.6,4.99,0.00,22.6,22.0,00.0,31.5,24.4,14.9,0000.0,0005.85,0004.49,0004.32
2022-01-22 06:10:00,,0833.7,5.01,0.00,22.6,22.0,00.0,31.5,24.4,14.8,0000.0,0005.99,0004.53,0004.35
2022-01-22 06:11:00,,0833.6,5.00,0.00,22.6,21.9,00.0,31.5,24.3,14.8,0000.0,0006.16,0004.56,0004.36
2022-01-22 06:12:00,,0833.6,5.00,0.00,22.6,21.9,00.0,31.5,24.3,14.8,0000.0,0006.14,0004.57,0004.39
2022-01-22 06:13:00,,0833.6,4.99,0.00,22.5,21.9,00.0,31.5,24.3,14.9,0000.0,0006.21,0004.60,0004.42
2022-01-22 06:14:00,,0833.7,5.00,0.00,22.5,21.9,00.0,31.5,24.3,15.0,0000.0,0006.17,0004.62,0004.47
2022-01-22 06:15:00,,0833.7,5.00,0.00,22.5,21.9,00.0,31.5,24.3,15.1,0000.0,0006.19,0004.67,0004.52
2022-01-22 06:16:00,,0833.7,5.00,0.00,22.5,21.9,00.0,31.5,24.3,15.1,0000.0,0006.32,0004.72,0004.56
2022-01-22 06:17:00,,0833.7,5.00,0.00,22.5,21.9,00.0,31.5,24.3,15.0,0000.0,0006.42,0004.74,0004.57
2022-01-22 06:18:00,,0833.7,5.01,0.00,22.5,21.9,00.0,31.5,24.3,15.0,0000.0,0006.45,0004.76,0004.58
2022-01-22 06:19:00,,0833.6,5.00,0.00,22.5,21.9,00.0,31.5,24.2,15.0,0000.0,0006.44,0004.75,0004.58
2022-01-22 06:20:00,,0833.6,5.00,0.00,22.5,21.8,00.0,31.5,24.2,15.0,0000.0,0006.36,0004.74,0004.57
2022-01-22 06:21:00,,0833.6,5.01,0.00,22.5,21.8,00.0,31.5,24.2,15.0,0000.0,0006.35,0004.75,0004.58
2022-01-22 06:22:00,,0833.6,4.99,0.00,22.5,21.8,00.0,31.4,24.2,14.9,0000.0,0006.28,0004.76,0004.59
2022-01-22 06:23:00,,0833.6,5.02,0.00,22.4,21.8,00.0,31.4,24.2,14.9,0000.0,0006.29,0004.77,0004.60
2022-01-22 06:24:00,,0833.6,4.99,0.00,22.4,21.8,00.0,31.4,24.2,14.9,0000.0,0006.27,0004.76,0004.61
2022-01-22 06:25:00,,0833.6,5.01,0.00,22.4,21.8,00.0,31.4,24.2,14.9,0000.0,0006.27,0004.75,0004.59
2022-01-22 06:26:00,,0833.6,4.99,0.00,22.4,21.8,00.0,31.4,24.2,14.9,0000.0,0006.29,0004.76,0004.59
2022-01-22 06:27:00,,0833.6,5.01,0.00,22.4,21.8,00.0,31.4,24.2,14.9,0000.0,0006.20,0004.73,0004.58
2022-01-22 06:28:00,,0833.6,5.00,0.00,22.4,21.8,00.0,31.4,24.2,14.9,0000.0,0006.05,0004.70,0004.57
2022-01-22 06:29:00,,0833.6,5.00,0.00,22.4,21.7,00.0,31.4,24.2,14.9,0000.0,0006.06,0004.69,0004.56
2022-01-22 06:30:00,,0833.6,4.99,0.00,22.4,21.7,00.0,31.4,24.2,14.9,0000.0,0006.06,0004.69,0004.55
2022-01-22 06:31:00,,0833.6,5.01,0.00,22.4,21.7,00.0,31.4,24.2,14.9,0000.0,0006.13,0004.70,0004.55
2022-01-22 06:32:00,,0833.6,4.99,0.00,22.4,21.7,00.0,31.4,24.1,14.9,0000.0,0006.12,0004.69,0004.55
2022-01-22 06:33:00,,0833.6,5.01,0.00,22.4,21.7,00.0,31.4,24.1,14.9,0000.0,0006.18,0004.71,0004.56
2022-01-22 06:34:00,,0833.6,4.99,0.00,22.4,21.7,00.0,31.4,24.1,14.9,0000.0,0006.16,0004.72,0004.57
2022-01-22 06:35:00,,0833.6,5.00,0.00,22.4,21.7,00.0,31.4,24.1,14.9,0000.0,0006.14,0004.71,0004.56
2022-01-22 06:36:00,,0833.6,4.99,0.00,22.4,21.7,00.0,31.3,24.1,14.9,0000.0,0006.10,0004.70,0004.55
2022-01-22 06:37:00,,0833.6,5.02,0.00,22.4,21.7,00.0,31.4,24.1,14.9,0000.0,0006.02,0004.68,0004.54
2022-01-22 06:38:00,,0833.7,4.99,0.00,22.4,21.7,00.0,31.3,24.1,15.0,0000.0,0006.04,0004.69,0004.55
2022-01-22 06:39:00,,0833.6,5.01,0.00,22.4,21.7,00.0,31.3,24.1,15.2,0000.0,0006.15,0004.73,0004.58
2022-01-22 06:40:00,,0833.7,5.01,0.00,22.4,21.6,00.0,31.3,24.1,15.4,0000.0,0006.32,0004.81,0004.65
2022-01-22 06:41:00,,0833.7,4.99,0.00,22.4,21.8,00.0,31.3,24.1,15.5,0000.0,0006.45,0004.88,0004.72
2022-01-22 06:42:00,,0833.7,4.99,0.00,22.5,22.4,00.0,31.4,24.3,15.5,0000.0,0006.53,0004.94,0004.79
2022-01-22 06:43:00,,0833.7,5.01,0.00,22.6,23.1,00.0,31.4,24.6,15.4,0000.0,0006.81,0005.04,0004.88
2022-01-22 06:44:00,,0833.7,5.00,0.00,22.7,23.1,00.0,31.5,24.7,15.4,0000.0,0007.01,0005.14,0004.98
2022-01-22 06:45:00,,0833.7,5.00,0.00,22.7,23.0,00.0,31.5,24.7,15.4,0000.0,0007.22,0005.23,0005.06
2022-01-22 06:46:00,,0833.7,5.00,0.00,22.7,22.8,00.0,31.5,24.7,15.5,0000.0,0007.42,0005.34,0005.15
2022-01-22 06:47:00,,0833.7,5.01,0.00,22.7,22.7,00.0,31.5,24.6,15.5,0000.0,0007.60,0005.49,0005.28
2022-01-22 06:48:00,,0833.7,4.98,0.00,22.7,22.5,00.0,31.5,24.6,15.6,0000.0,0008.19,0005.67,0005.43
2022-01-22 06:49:00,,0833.7,5.00,0.00,22.7,22.4,00.0,31.5,24.5,15.6,-000.5,0008.36,0005.79,0005.54
2022-01-22 06:50:00,,0833.8,5.01,0.00,22.7,22.3,00.0,31.5,24.5,15.6,-001.0,0008.53,0005.95,0005.69
2022-01-22 06:51:00,,0833.8,4.99,0.00,22.7,22.3,00.0,31.5,24.5,15.7,-000.9,0008.74,0006.11,0005.85
2022-01-22 06:52:00,,0833.8,5.01,0.00,22.7,22.2,00.0,31.5,24.5,15.8,-001.1,0009.01,0006.30,0006.03
2022-01-22 06:53:00,,0833.7,4.99,0.00,22.7,22.2,00.0,31.6,24.5,15.9,-000.9,0009.56,0006.54,0006.25
2022-01-22 06:54:00,,0833.7,5.03,0.00,22.7,22.1,00.0,31.6,24.5,16.0,-000.9,0009.90,0006.74,0006.45
2022-01-22 06:55:00,,0833.7,4.99,0.00,22.7,22.1,00.0,31.6,24.5,16.1,-000.9,0010.15,0006.96,0006.65
2022-01-22 06:56:00,,0833.8,5.00,0.00,22.7,22.0,00.0,31.6,24.4,16.1,-000.6,0010.45,0007.19,0006.85
2022-01-22 06:57:00,,0833.8,5.01,0.00,22.6,22.0,00.0,31.6,24.4,16.2,-000.4,0010.81,0007.45,0007.10
2022-01-22 06:58:00,,0833.8,4.98,0.00,22.6,21.9,00.0,31.5,24.4,16.2,-000.8,0011.62,0007.64,0007.28
2022-01-22 06:59:00,,0833.7,5.01,0.00,22.6,21.9,00.0,31.5,24.4,16.2,-000.9,0011.63,0007.80,0007.43
